Location: Stone Trail Observatory
(44.2408°N, 105.6081°W)
Time: 07:59:54
(UTC-07:00)

Iridium 6 - Visible Passes

Search period start: 19 January 2017 00:00
Search period end: 29 January 2017 00:00
Orbit: 776 x 779 km, 86.4° (Epoch: 18 January)

Date Brightness Start Highest point End Pass type
(mag) Time Alt. Az. Time Alt. Az. Time Alt. Az.
19 Jan 5.7 04:59:51 10° N 05:05:05 72° E 05:10:17 10° S visible
19 Jan 7.0 06:42:23 10° NW 06:45:08 14° WNW 06:47:52 10° WSW visible
19 Jan 6.2 17:58:17 10° SSW 18:03:24 57° W 18:08:34 10° N visible
20 Jan 6.7 04:26:32 10° N 04:31:27 40° E 04:36:20 10° SSE visible
20 Jan 6.4 06:07:42 10° NNW 06:11:56 25° W 06:16:09 10° SW visible
20 Jan 5.5 17:24:39 10° S 17:29:52 80° E 17:35:06 10° N visible
20 Jan 8.4 19:08:49 10° W 19:11:16 13° WNW 19:13:44 10° NW visible
21 Jan 7.6 03:54:53 15° NE 03:57:42 23° ENE 04:01:48 10° SE visible
21 Jan 5.7 05:35:37 22° NNW 05:38:38 45° W 05:43:33 10° SSW visible
21 Jan 7.9 18:33:15 10° SW 18:37:22 23° WNW 18:41:30 10° NNW visible
22 Jan 8.3 03:24:08 13° ENE 03:24:08 13° ENE 03:26:14 10° E visible
22 Jan 5.3 05:04:45 73° NNW 05:05:12 81° W 05:10:25 10° S visible
22 Jan 7.0 17:58:43 10° SSW 18:03:36 40° W 18:08:31 10° N visible
23 Jan 6.5 04:33:14 40° SE 04:33:14 40° SE 04:36:46 10° SSE visible
23 Jan 7.1 06:13:50 15° WSW 06:13:50 15° WSW 06:15:20 10° WSW visible
23 Jan 5.9 17:24:47 10° S 17:29:59 72° W 17:35:13 10° N visible
24 Jan 7.9 04:01:28 16° SE 04:01:28 16° SE 04:02:37 10° SE visible
24 Jan 7.3 05:42:03 16° SW 05:42:03 16° SW 05:43:11 10° SW visible
24 Jan 8.3 18:34:24 10° WSW 18:37:41 17° WNW 18:40:59 10° NNW visible
25 Jan 7.8 05:10:07 11° SSW 05:10:07 11° SSW 05:10:22 10° SSW visible
25 Jan 7.6 17:59:22 10° SW 18:03:51 29° WNW 18:08:21 10° NNW visible
27 Jan 8.5 18:36:17 10° W 18:38:04 12° WNW 18:39:53 10° NW visible
28 Jan 8.2 18:00:17 10° WSW 18:04:09 21° WNW 18:08:02 10° NNW visible
